User: anonymous   Login
Location: La Brionne
(46.1728°N, 1.7849°E)
Time: 11:35:57
(UTC+00:00)
Language:

Meteor 2-11 Rocket - Orbit

View from above orbital plane
View from above orbital plane
View from above satellite
View from above satellite

Ground track
Ground track

The orbit data is extracted from the following two-line orbital elements,

1 15100U 84072B   21266.15747954  .00000039  00000-0  21769-4 0  9998
2 15100  82.5334 341.4292 0010661 292.4807  67.5224 13.84450101880600
Epoch (UTC): 23 September 2021 03:46:46
Eccentricity: 0.0010661
inclination: 82.5334°
perigee height: 940 km
apogee height: 956 km
right ascension of ascending node: 341.4292°
argument of perigee: 292.4807°
revolutions per day: 13.84450101
mean anomaly at epoch: 67.5224°
orbit number at epoch: 88060

The dashed part of the orbit path shows where the satellite is in the earth's shadow,  

DLR